Weather History for Joplin, MO

Change the Weather History Date:

Monday, December 31, 2012

  Actual Average Record
Temperature  
Mean Temperature 35 °F 35 °F  
Max Temperature 37 °F 45 °F 74 °F (1951)
Min Temperature 32 °F 25 °F -5 °F (1976)
Degree Days  
Heating Degree Days 30 30  
Month to date heating degree days 711 861  
Since 1 July heating degree days 1497 1617  
Cooling Degree Days 0 0  
Month to date cooling degree days 0 0  
Year to date cooling degree days 2106 1698  
Moisture  
Dew Point 32 °F    
Average Humidity 74    
Maximum Humidity 100    
Minimum Humidity 48    
Precipitation  
Precipitation 0.18 in 0.07 in 2.66 in (1984)
Month to date precipitation 1.07 2.82  
Year to date precipitation 38.03 46.55  
Snow  
Snow 0.00 in - - ()
Month to date snowfall T  
Snow Depth 0.00 in    
Sea Level Pressure  
Sea Level Pressure 30.12 in    
Wind  
Wind Speed 6 mph (SE)    
Max Wind Speed 16 mph    
Max Gust Speed 22 mph    
Visibility 3 miles    
Events Rain , Snow    
T = Trace of Precipitation, MM = Missing Value Source: NWS Daily Summary

Daily Weather History Graph

Daily Weather History Graph

Search for Another Location

Airport:

Trip Planner

Search our weather history database for the weather conditions in past years. The results will help you decide how hot, cold, wet, or windy it might be!

Date:

Astronomy

Dec. 31, 2012 Rise Set
Actual Time 7:31 AM CST 5:11 PM CST
Civil Twilight 7:02 AM CST 5:40 PM CST
Nautical Twilight 6:30 AM CST 6:12 PM CST
Astronomical Twilight 5:58 AM CST 6:44 PM CST
Moon 8:37 PM CST (12/31) 9:18 AM CST (12/31)
Length of Visible Light 10h 37m
Length of Day
9h 39m
Waning Gibbous, 90% of the Moon is Illuminated
Dec 31
Waning Gibbous
Jan 4
Last Quarter
Jan 11
New
Jan 18
First Quarter
Jan 26
Full

Hourly Weather History & Observations

Time (CST) Temp. Windchill Dew Point Humidity Pressure Visibility Wind Dir Wind Speed Gust Speed Precip Events Conditions
12:53 AM 37.0 °F 31.0 °F 19.9 °F 50% 30.22 in 10.0 mi South 8.1 mph - N/A   Partly Cloudy
1:53 AM 37.0 °F 28.9 °F 21.0 °F 52% 30.20 in 10.0 mi South 12.7 mph - 0.00 in Rain Light Rain
2:43 AM 33.8 °F 25.8 °F 28.4 °F 81% 30.20 in 1.8 mi SSW 10.4 mph - 0.02 in Snow Light Snow
2:53 AM 33.1 °F 24.4 °F 28.9 °F 85% 30.22 in 2.0 mi SSW 11.5 mph - 0.03 in Snow Light Snow
3:08 AM 33.8 °F 27.0 °F 30.2 °F 87% 30.21 in 3.0 mi SSW 8.1 mph - 0.01 in Snow Light Snow
3:17 AM 32.0 °F - 30.2 °F 93% 30.20 in 1.8 mi Calm Calm - 0.01 in Snow Light Snow
3:53 AM 32.0 °F 27.5 °F 30.9 °F 96% 30.21 in 1.8 mi SSW 4.6 mph - 0.05 in Snow Light Snow
4:03 AM 32.0 °F 26.4 °F 30.2 °F 93% 30.19 in 2.5 mi South 5.8 mph - 0.00 in Snow Light Snow
4:10 AM 32.0 °F 28.7 °F 30.2 °F 93% 30.18 in 3.0 mi SSW 3.5 mph - 0.00 in Snow Light Snow
4:13 AM 32.0 °F - 30.2 °F 93% 30.18 in 2.5 mi Calm Calm - 0.00 in Snow Light Snow
4:20 AM 32.0 °F 27.5 °F 30.2 °F 93% 30.18 in 2.5 mi South 4.6 mph - 0.01 in Snow Light Snow
4:25 AM 32.0 °F 26.4 °F 30.2 °F 93% 30.17 in 3.0 mi South 5.8 mph - 0.01 in Snow Light Snow
4:42 AM 32.0 °F 27.5 °F 30.2 °F 93% 30.17 in 6.0 mi South 4.6 mph - 0.01 in Rain Light Freezing Rain
4:48 AM 33.8 °F 29.6 °F 30.2 °F 87% 30.17 in 6.0 mi South 4.6 mph - 0.01 in Rain Light Freezing Rain
4:49 AM 33.1 °F 28.7 °F 30.9 °F 92% 30.19 in 6.0 mi South 4.6 mph - 0.01 in Rain Light Freezing Rain
5:05 AM 33.8 °F 27.7 °F 30.2 °F 87% 30.18 in 8.0 mi South 6.9 mph - 0.01 in   Overcast
5:31 AM 33.8 °F 28.6 °F 30.2 °F 87% 30.17 in 6.0 mi South 5.8 mph - 0.01 in Snow Light Snow
5:53 AM 33.1 °F 26.9 °F 30.9 °F 92% 30.18 in 4.0 mi South 6.9 mph - 0.01 in Snow Light Snow
6:24 AM 33.8 °F 28.6 °F 32.0 °F 93% 30.16 in 8.0 mi South 5.8 mph - 0.00 in   Overcast
6:53 AM 33.1 °F 26.9 °F 30.9 °F 92% 30.17 in 7.0 mi South 6.9 mph - 0.00 in Rain Light Freezing Rain
7:17 AM 33.8 °F 28.6 °F 32.0 °F 93% 30.14 in 8.0 mi South 5.8 mph - 0.00 in   Overcast
7:53 AM 33.1 °F 25.5 °F 32.0 °F 96% 30.15 in 4.0 mi South 9.2 mph - 0.00 in Rain Light Rain
8:16 AM 33.8 °F 27.7 °F 30.2 °F 87% 30.12 in 2.0 mi SSE 6.9 mph - 0.00 in Rain Light Freezing Rain
8:51 AM 33.8 °F 27.0 °F 32.0 °F 93% 30.12 in 2.0 mi South 8.1 mph - 0.00 in Snow Light Snow
8:53 AM 33.1 °F 26.1 °F 32.0 °F 96% 30.14 in 2.0 mi South 8.1 mph - 0.00 in Snow Light Snow
9:53 AM 33.1 °F 28.7 °F 32.0 °F 96% 30.16 in 3.0 mi SSE 4.6 mph - 0.01 in Snow Light Snow
10:07 AM 33.8 °F 29.6 °F 33.8 °F 100% 30.15 in 3.0 mi SSE 4.6 mph - 0.00 in Rain Light Freezing Rain
10:25 AM 33.8 °F 29.6 °F 32.0 °F 93% 30.14 in 2.5 mi SE 4.6 mph - 0.00 in Snow Light Snow
10:28 AM 33.8 °F 30.8 °F 32.0 °F 93% 30.14 in 2.5 mi SSE 3.5 mph - 0.00 in Snow Light Snow
10:53 AM 34.0 °F 29.8 °F 32.0 °F 92% 30.15 in 2.5 mi SE 4.6 mph - 0.02 in Snow Light Snow
11:39 AM 33.8 °F 30.8 °F 33.8 °F 100% 30.10 in 2.5 mi ESE 3.5 mph - 0.01 in Snow Light Snow
11:45 AM 33.8 °F 29.6 °F 33.8 °F 100% 30.10 in 4.0 mi SE 4.6 mph - 0.01 in Rain Light Freezing Rain
11:53 AM 34.0 °F 31.0 °F 33.1 °F 96% 30.12 in 5.0 mi SSE 3.5 mph - 0.01 in Rain Light Rain
12:44 PM 33.8 °F 29.6 °F 33.8 °F 100% 30.06 in 1.8 mi ESE 4.6 mph - 0.01 in Rain Light Rain
12:53 PM 35.1 °F 32.2 °F 34.0 °F 96% 30.07 in 1.5 mi East 3.5 mph - 0.01 in Rain Light Rain
1:19 PM 35.6 °F 30.7 °F 33.8 °F 93% 30.03 in 1.8 mi East 5.8 mph - 0.00 in Rain Light Rain
1:53 PM 36.0 °F 33.3 °F 35.1 °F 97% 30.03 in 1.2 mi East 3.5 mph - 0.01 in Rain Light Rain
2:53 PM 36.0 °F 31.1 °F 36.0 °F 100% 30.02 in 1.2 mi ENE 5.8 mph - 0.01 in Rain Light Rain
3:53 PM 36.0 °F 32.1 °F 36.0 °F 100% 30.02 in 1.2 mi ENE 4.6 mph - 0.00 in Rain Light Rain
4:53 PM 36.0 °F 32.1 °F 35.1 °F 97% 30.02 in 1.5 mi East 4.6 mph - 0.00 in Rain Light Rain
5:50 PM 35.6 °F 31.7 °F 35.6 °F 100% 30.01 in 1.5 mi NE 4.6 mph - 0.00 in Rain Light Rain
5:53 PM 35.1 °F 31.0 °F 35.1 °F 100% 30.04 in 1.5 mi NE 4.6 mph - 0.00 in Rain Light Rain
6:53 PM 35.1 °F 32.2 °F 35.1 °F 100% 30.04 in 2.0 mi ENE 3.5 mph - 0.01 in Rain Light Rain
7:40 PM 35.6 °F 32.8 °F 35.6 °F 100% 30.03 in 4.0 mi ENE 3.5 mph - 0.00 in Rain Light Rain
7:53 PM 35.1 °F 32.2 °F 35.1 °F 100% 30.05 in 4.0 mi NE 3.5 mph - 0.00 in Rain Light Rain
8:53 PM 35.1 °F 31.0 °F 35.1 °F 100% 30.05 in 4.0 mi NNE 4.6 mph - 0.00 in Rain Light Rain
9:16 PM 35.6 °F 30.7 °F 35.6 °F 100% 30.03 in 2.5 mi NNE 5.8 mph - 0.00 in Rain Light Rain
9:33 PM 35.6 °F 31.7 °F 35.6 °F 100% 30.04 in 2.0 mi NNE 4.6 mph - 0.00 in Rain Light Rain
9:53 PM 34.0 °F 28.0 °F 34.0 °F 100% 30.06 in 2.0 mi NE 6.9 mph - 0.00 in Rain Light Rain
10:51 PM 33.8 °F 28.6 °F 33.8 °F 100% 30.07 in 1.8 mi NNE 5.8 mph - 0.00 in Rain Light Rain
10:53 PM 34.0 °F 28.8 °F 34.0 °F 100% 30.09 in 1.8 mi NNE 5.8 mph - 0.00 in Rain Light Rain
11:15 PM 33.8 °F 29.6 °F 33.8 °F 100% 30.07 in 2.0 mi NNE 4.6 mph - 0.00 in Rain Light Rain
11:53 PM 34.0 °F 28.0 °F 34.0 °F 100% 30.10 in 2.0 mi NNE 6.9 mph - 0.00 in Rain Light Rain